[[{"header":{"parameterUnit":"m.s-1","parameterCategory":1,"la1":30.2992,"la2":30.254,"lo1":-89.0895,"lo2":-89.0443,"dy":0.0025,"dx":0.0025,"nx":19,"ny":19,"refTime":"2026-04-02T21:00:00:Z","depth":0,"parameterNumber":2,"parameterNumberName":"U-component_of_WINDS"},"data":[0,0,0,-4.7523,-4.7527,-4.7682,-4.7683,-4.7882,-4.7884,0,0,0,0,0,0,0,0,0,0,0,-4.7478,-4.748,-4.7523,-4.7527,-4.7682,-4.7683,-4.7882,-4.7884,0,0,0,0,0,0,0,0,0,0,0,-4.7478,-4.7479,-4.7481,-4.7527,-4.7682,-4.7683,-4.7882,-4.7764,0,0,0,0,0,0,0,0,0,0,-4.7613,-4.7572,-4.7479,-4.7481,-4.7528,-4.7682,-4.7683,-4.7758,-4.7771,-4.7813,0,-4.785,0,-4.787,-4.7898,-4.7898,0,0,0,-4.7526,-4.7561,-4.7603,-4.7481,-4.753,-4.7682,-4.7612,-4.7765,-4.778,-4.783,-4.7853,-4.786,-4.7874,-4.7899,-4.79,-4.8143,-4.8144,0,0,-4.7517,-4.7506,-4.7592,-4.7612,-4.7589,-4.7607,-4.7617,-4.7774,-4.7798,-4.7854,-4.7865,-4.7877,-4.79,-4.7902,-4.8142,-4.8143,0,0,0,-4.7493,-4.75,-4.7538,-4.7604,-4.7632,-4.7611,-4.7623,-4.7791,-4.7805,-4.7867,-4.7879,-4.7901,-4.7904,-4.814,-4.8142,-4.8189,0,0,0,-4.7488,-4.7487,-4.7534,-4.7529,-4.7629,-4.7714,-4.7636,-4.7794,-4.7812,-4.7878,-4.7902,-4.7906,-4.8139,-4.8141,-4.8185,-4.8212,0,0,0,-4.7468,-4.7484,-4.7507,-4.7528,-4.7595,-4.7712,-4.7734,-4.7798,-4.7819,-4.7899,-4.7906,-4.8138,-4.8141,-4.8181,-4.8206,-4.8272,0,0,0,-4.7442,-4.7547,-4.7508,-4.7629,-4.7593,-4.774,-4.7733,-4.7843,-4.7916,-4.7903,-4.8139,-4.8142,-4.818,-4.8203,-4.8268,-4.8324,-4.8347,0,0,-4.7568,-4.7561,-4.7633,-4.7603,-4.7754,-4.7717,-4.7875,-4.7953,-4.797,-4.8084,-4.809,-4.8186,-4.8206,-4.8271,-4.8482,-4.8499,0,0,0,-4.7669,-4.7721,-4.7763,-4.7833,-4.7896,-4.7951,-4.8006,-4.8035,-4.8132,-4.8027,-4.8229,-4.8241,-4.828,-4.8307,-4.8322,-4.8355,-4.8155,-4.8154,-4.8154,-4.7829,-4.7847,-4.7967,-4.8003,-4.8072,-4.8128,-4.8184,-4.8232,-4.823,-4.8278,-4.831,-4.8436,-4.8468,-4.8479,-4.8514,-4.8343,-4.8344,-4.8344,-4.8344,-4.8012,-4.8087,-4.8083,-4.8198,-4.8216,-4.8312,-4.8371,-4.8366,-4.8458,-4.8413,-4.8447,-4.8394,-4.8498,-4.8529,-4.8348,-4.8347,-4.8346,-4.8346,-4.8346,-4.8117,-4.8156,-4.819,-4.8293,-4.8371,-4.8405,-4.8494,-4.8508,-4.8521,-4.8556,-4.8591,-4.8591,-4.859,-4.8572,-4.8573,-4.8573,-4.8574,-4.8574,-4.8574,-4.821,-4.8248,-4.8321,-4.8397,-4.8444,-4.8508,-4.8567,-4.8613,-4.8668,-4.8671,-4.8671,-4.8663,-4.8506,-4.8465,-4.8581,-4.858,-4.8579,-4.8578,-4.8578,-4.8386,-4.8349,-4.8462,-4.8509,-4.86,-4.8675,-4.8693,-4.8787,-4.8827,-4.8871,-4.8856,-4.8739,-4.8733,-4.8721,-4.8687,-4.8853,-4.8853,-4.8853,-4.8853,-4.8472,-4.8471,-4.859,-4.8665,-4.8739,-4.8767,-4.8894,-4.8941,-4.8984,-4.901,-4.8989,-4.8946,-4.8933,-4.8934,-4.8918,-4.8886,-4.9099,-4.9099,-4.91,-4.858,-4.8587,-4.8692,-4.8734,-4.8807,-4.8868,-4.8988,-4.9073,-4.9114,-4.911,-4.903,-4.902,-4.8951,-4.8928,-4.8918,-4.8892,-4.8834,0,0]},{"header":{"parameterUnit":"m.s-1","parameterCategory":1,"la1":30.2992,"la2":30.254,"lo1":-89.0895,"lo2":-89.0443,"dy":0.0025,"dx":0.0025,"nx":19,"ny":19,"refTime":"2026-04-02T21:00:00:Z","depth":0,"parameterNumber":3,"parameterNumberName":"V-component_of_WINDS"},"data":[0,0,0,3.2254,3.2256,3.2355,3.2356,3.2471,3.2472,0,0,0,0,0,0,0,0,0,0,0,3.2219,3.222,3.2254,3.2256,3.2355,3.2356,3.2471,3.2472,0,0,0,0,0,0,0,0,0,0,0,3.2219,3.222,3.222,3.2257,3.2355,3.2356,3.2471,3.24,0,0,0,0,0,0,0,0,0,0,3.2305,3.2268,3.2219,3.222,3.2257,3.2355,3.2356,3.2396,3.2404,3.2422,0,3.2437,0,3.2456,3.2479,3.2479,0,0,0,3.226,3.2261,3.2293,3.2221,3.2258,3.2355,3.2312,3.2401,3.2409,3.2432,3.2439,3.2443,3.2458,3.248,3.248,3.2575,3.2575,0,0,3.2254,3.2234,3.2287,3.2299,3.2284,3.2308,3.2315,3.2406,3.2412,3.2439,3.2446,3.246,3.248,3.2481,3.2575,3.2575,0,0,0,3.2236,3.2229,3.226,3.2294,3.2313,3.2311,3.2318,3.2408,3.2419,3.2448,3.2462,3.2481,3.2482,3.2575,3.2575,3.257,0,0,0,3.2233,3.2219,3.2257,3.2245,3.2311,3.2362,3.2318,3.2413,3.2424,3.2461,3.2481,3.2483,3.2574,3.2575,3.257,3.2572,0,0,0,3.2215,3.2217,3.223,3.2244,3.2286,3.2361,3.2378,3.2416,3.2432,3.2479,3.2484,3.2574,3.2575,3.257,3.2571,3.2592,0,0,0,3.2188,3.2221,3.2229,3.2272,3.2285,3.2357,3.2377,3.2432,3.2471,3.2482,3.2575,3.2575,3.2569,3.2571,3.2592,3.2608,3.2612,0,0,3.2219,3.2224,3.2251,3.2261,3.2327,3.2344,3.2409,3.2463,3.2485,3.2544,3.2546,3.257,3.2571,3.2592,3.2641,3.2644,0,0,0,3.2254,3.2273,3.2295,3.2333,3.2377,3.2416,3.2463,3.2484,3.2535,3.2512,3.2583,3.2584,3.2598,3.2606,3.2609,3.2623,3.2578,3.2578,3.2578,3.2267,3.2296,3.2343,3.2384,3.2421,3.2471,3.2503,3.2539,3.2555,3.2572,3.259,3.2616,3.2626,3.2628,3.2642,3.2599,3.2599,3.2599,3.2599,3.2315,3.2348,3.2372,3.2426,3.2456,3.2502,3.2551,3.2562,3.2608,3.2605,3.2618,3.2613,3.2631,3.2644,3.2599,3.2599,3.2599,3.2599,3.2599,3.2328,3.2349,3.2375,3.2435,3.2477,3.2517,3.2562,3.2587,3.261,3.2623,3.2646,3.2646,3.2651,3.2632,3.2632,3.2632,3.2632,3.2633,3.2633,3.2332,3.2361,3.2397,3.2449,3.2478,3.2519,3.257,3.2599,3.2637,3.2651,3.2652,3.2668,3.2627,3.2617,3.2634,3.2634,3.2634,3.2634,3.2633,3.2373,3.2368,3.2423,3.2452,3.2516,3.2557,3.2589,3.2646,3.2673,3.2694,3.2708,3.2673,3.268,3.2678,3.267,3.27,3.27,3.27,3.27,3.2385,3.2391,3.2455,3.25,3.2547,3.2582,3.2644,3.2684,3.2725,3.2744,3.2743,3.2734,3.2731,3.274,3.2737,3.273,3.2774,3.2774,3.2774,3.2412,3.2425,3.2473,3.2515,3.2567,3.2611,3.267,3.2721,3.2765,3.2778,3.2759,3.2756,3.2742,3.2736,3.2749,3.2743,3.2731,0,0]}]]